This is the latest recevied weather packets stored in our database for station/object LY3FF-10. If no packets are shown the sender has not sent any weather packets the latest 10 day(s).
| Time | Temp. | Humidity | Pressure | Rain* | Wind** | Luminosity | Snow |
|---|---|---|---|---|---|---|---|
| 1787422800 | 15.56° C | 73% | 985.8 hPa | - | - | - | - |
| 1787422015 | 16.11° C | 72% | 985.6 hPa | - | - | - | - |
| 1787421295 | 16.11° C | 72% | 985.5 hPa | - | - | - | - |
| 1787420550 | 16.11° C | 71% | 985.4 hPa | - | - | - | - |
| 1787419695 | 16.11° C | 70% | 984.9 hPa | - | - | - | - |
| 1787418864 | 16.11° C | 70% | 984.8 hPa | - | - | - | - |
| 1787417975 | 16.11° C | 71% | 984.6 hPa | - | - | - | - |
| 1787417243 | 16.11° C | 71% | 984.5 hPa | - | - | - | - |
| 1787416470 | 16.11° C | 73% | 984.3 hPa | - | - | - | - |
| 1787415645 | 16.11° C | 72% | 984.3 hPa | - | - | - | - |
| 1787414875 | 16.67° C | 68% | 984 hPa | - | - | - | - |
| 1787414140 | 17.22° C | 65% | 983.6 hPa | - | - | - | - |
| 1787413305 | 17.78° C | 63% | 983.4 hPa | - | - | - | - |
| 1787412555 | 17.78° C | 62% | 983.1 hPa | - | - | - | - |
| 1787411680 | 17.78° C | 61% | 982.9 hPa | - | - | - | - |
| 1787410868 | 18.33° C | 60% | 982.4 hPa | - | - | - | - |
| 1787410015 | 18.33° C | 62% | 982 hPa | - | - | - | - |
| 1787409140 | 17.78° C | 63% | 981.6 hPa | - | - | - | - |
| 1787408364 | 17.78° C | 66% | 981.2 hPa | - | - | - | - |
| 1787407635 | 17.78° C | 69% | 981 hPa | - | - | - | - |
| 1787406800 | 17.78° C | 71% | 980.6 hPa | - | - | - | - |
| 1787405915 | 17.78° C | 67% | 980 hPa | - | - | - | - |
| 1787405055 | 17.78° C | 67% | 979.5 hPa | - | - | - | - |
| 1787404320 | 17.78° C | 71% | 979.1 hPa | - | - | - | - |
| 1787403560 | 17.78° C | 76% | 978.4 hPa | - | - | - | - |
* Rain since midnight (hover to see other rain measurements)
** Current wind speed in m/s (hover to see current wind gust speed)